User: anonymous   Login
Location: Unspecified
(0.0000°N, 0.0000°E)
Time: 02:42:03
(UTC+01:00)
Language:

Palapa 6 Rocket - Orbit

View from above orbital plane
View from above orbital plane
View from above satellite
View from above satellite

Ground track
Ground track

The orbit data is extracted from the following two-line orbital elements,

1 20571U 90034B   18049.51859650  .00000533  00000-0  30665-4 0  9997
2 20571  22.7443 150.6420 0508048 132.7986 231.6340 14.12085687426887
Epoch (UTC): 18 February 2018 12:26:46
Eccentricity: 0.0508048
inclination: 22.7443°
perigee height: 485 km
apogee height: 1219 km
right ascension of ascending node: 150.6420°
argument of perigee: 132.7986°
revolutions per day: 14.12085687
mean anomaly at epoch: 231.6340°
orbit number at epoch: 42688

The dashed part of the orbit path shows where the satellite is in the earth's shadow,  

DLR